Location: Downe
(51.3167°N, 0.0500°E)
Time: 02:21:32
(UTC+00:00)

COSMO-SKYMED 1 - Pass Details

Date: 17 November 2019
Orbit: 621 x 623 km, 97.9° (Epoch: 12 December)

Event Time Altitude Azimuth Distance (km) Brightness Sun altitude
Rises 05:12:45 0° 171° (S) 2,893 6.2 -19.6°
Reaches altitude 10° 05:14:56 10° 174° (S) 1,991 5.3 -19.2°
Maximum altitude 05:19:16 69° 258° (WSW) 673 2.5 -18.6°
Enters shadow 05:23:15 12° 341° (NNW) 1,862 4.7 -17.9°
